User: anonymous   Login
Location: Mentone
(34.5413°N, 85.5351°W)
Time: 14:40:23
(UTC-05:00)
Language:

Centaur AC-72 - Orbit

View from above orbital plane
View from above orbital plane
View from above satellite
View from above satellite

Ground track
Ground track

The orbit data is extracted from the following two-line orbital elements,

1 21907U 92013B   16147.39827184 -.00000059 +00000-0 +00000-0 0  9990
2 21907 019.6304 032.5026 6949670 287.1705 160.2995 02.25604968199488
Epoch (UTC): 26 May 2016 09:33:30
Eccentricity: 0.6949670
inclination: 19.6304°
perigee height: 1112 km
apogee height: 35244 km
right ascension of ascending node: 32.5026°
argument of perigee: 287.1705°
revolutions per day: 2.25604968
mean anomaly at epoch: 160.2995°
orbit number at epoch: 19948

The dashed part of the orbit path shows where the satellite is in the earth's shadow,  

DLR